EHI
26 21 14 6 1 0 0 0 0 0 0 0 0 0 0 0 0 0 0 0 0 0 0 0 1 0 0 1 0 0 0 0 0 0 0 0 0 0 0 0 0 0 0 0 0 0 0 0 0
18 16 11 4 0 0 0 0 0 0 0 0 0 0 0 0 0 0 0 0 0 0 0 1 1 1 1 1 0 0 0 0 0 0 0 0 0 0 0 0 0 0 0 0 0 0 0 0 0
7 7 5 2 0 0 0 0 0 0 0 0 0 0 0 0 0 0 0 0 0 0 0 1 2 2 2 2 1 0 1 1 0 0 0 0 0 0 0 0 0 0 0 0 0 0 0 0 0
2 2 1 0 0 0 0 0 0 0 0 0 0 0 0 0 0 0 0 0 0 0 0 1 2 4 5 4 2 1 1 1 0 0 0 0 0 0 0 0 0 0 0 0 0 0 0 0 0
1 1 0 0 0 0 0 0 0 0 0 0 0 0 0 0 0 0 0 0 0 0 0 1 2 4 4 3 2 2 2 1 0 0 0 0 0 0 0 0 0 0 0 0 0 0 0 0 0
0 0 0 0 0 0 0 0 0 0 0 0 0 0 0 0 0 0 0 0 0 0 0 0 1 1 2 1 1 1 2 1 0 0 0 0 0 0 0 0 0 0 0 0 0 0 0 0 0
0 0 0 0 0 0 0 0 0 0 0 0 0 0 0 0 0 0 0 0 0 0 0 0 0 0 0 1 0 0 1 1 1 1 0 0 0 0 0 0 0 0 0 0 0 0 0 0 0
0 0 0 0 0 0 0 0 0 0 0 0 0 0 0 0 0 0 0 1 1 1 0 0 0 0 0 0 0 0 0 0 0 0 0 0 1 0 0 0 0 0 0 0 0 0 0 0 0
0 0 0 0 0 0 0 0 0 0 0 0 0 0 0 0 0 0 0 1 2 1 0 0 0 0 0 0 0 0 0 0 0 0 0 0 1 0 0 0 0 0 0 0 0 0 0 0 0
0 0 0 0 0 0 0 0 0 0 0 0 0 0 0 0 0 0 0 1 1 1 0 0 0 0 0 0 0 0 0 0 0 0 0 0 1 0 0 0 0 0 0 0 0 0 0 0 0
0 0 0 0 0 0 0 0 0 0 0 0 0 0 0 0 1 2 1 0 0 0 0 0 0 0 0 0 0 0 0 0 0 0 0 1 1 1 0 0 0 0 0 0 0 0 0 0 0
0 0 0 0 0 0 0 0 0 0 0 0 0 1 1 1 2 3 2 1 0 0 0 0 0 0 0 0 0 0 0 0 0 0 0 1 2 1 0 0 0 0 0 0 0 1 0 0 0
0 0 0 0 0 0 0 0 0 0 0 0 0 1 2 3 3 3 2 1 0 0 0 0 0 0 0 0 0 0 0 0 0 0 0 1 1 1 0 0 0 0 0 0 0 0 0 0 0
0 0 0 0 0 0 0 0 0 0 0 0 0 1 3 3 3 2 1 0 0 0 0 0 0 0 0 0 0 0 0 0 0 0 0 0 1 0 0 0 0 0 0 0 0 0 0 0 0
0 0 0 0 0 0 0 0 0 0 0 0 0 1 2 2 1 1 0 0 0 0 0 0 0 0 0 0 0 0 0 0 0 0 0 0 0 0 0 0 0 0 0 1 1 1 0 0 0
0 0 0 0 0 0 0 0 0 1 0 0 0 0 1 1 0 0 0 0 0 0 0 0 0 0 0 0 0 0 0 0 0 0 0 0 0 0 0 0 0 0 0 1 2 2 1 0 0
0 0 0 0 0 0 0 0 0 1 1 0 0 0 0 0 0 0 0 0 0 0 0 0 0 0 0 0 0 0 0 0 0 0 0 0 0 0 0 0 0 0 0 1 1 1 1 1 1
0 0 0 0 0 0 0 0 0 0 1 0 0 0 0 0 0 0 0 0 0 0 0 0 0 0 0 0 0 0 0 0 0 0 0 0 0 0 0 0 0 0 0 0 0 0 1 2 2
0 0 0 0 0 0 0 0 0 0 0 0 0 0 0 0 0 0 0 0 0 0 0 0 0 0 0 0 0 0 0 0 0 0 0 0 0 0 0 0 0 0 0 0 0 0 1 2 2
0 0 0 0 0 0 0 0 0 0 0 0 0 0 0 0 0 0 0 0 0 0 0 0 0 0 0 0 0 0 0 0 0 0 0 0 0 0 0 0 0 0 0 0 0 0 1 1 1
0 0 0 0 0 0 0 0 0 0 0 0 0 0 0 0 0 0 0 0 0 0 0 0 0 0 0 0 0 0 0 0 0 0 0 0 0 0 0 0 0 0 0 0 0 1 1 2 2
0 0 0 0 0 0 0 0 0 0 0 0 0 0 0 0 0 0 0 0 0 0 0 0 0 0 0 0 0 0 0 0 0 0 0 0 0 0 0 0 0 0 0 0 1 2 3 4 5
0 0 0 0 0 0 0 0 0 0 0 0 0 0 0 0 0 0 0 0 0 0 0 0 0 0 0 0 0 0 0 0 0 0 0 0 0 0 0 0 0 0 0 0 1 2 4 6 6
0 0 0 0 0 0 0 0 0 0 0 0 0 0 0 0 0 0 0 0 0 0 0 0 0 0 0 0 0 0 0 0 0 0 0 0 0 0 0 0 0 0 0 0 0 2 4 4 3
0 0 0 0 0 0 0 0 0 0 0 0 0 0 0 0 0 0 0 0 0 0 0 0 0 0 0 0 0 0 0 0 0 0 0 0 0 0 0 0 0 0 0 0 1 2 3 2 1
0 0 0 0 0 0 0 0 0 0 0 0 0 0 0 0 0 0 0 0 0 0 0 0 0 0 0 0 0 0 0 0 0 0 0 0 0 0 0 0 0 0 0 0 1 2 3 1 0
0 0 0 0 0 0 0 0 0 0 0 0 0 0 0 0 0 0 0 0 0 0 0 0 0 0 0 0 0 0 0 0 0 0 0 0 0 0 0 0 0 0 0 0 1 2 2 1 0
0 0 0 0 0 0 0 0 0 0 0 0 0 0 0 0 0 0 0 0 0 0 0 0 0 0 0 0 0 0 0 0 0 0 0 0 0 0 0 0 0 0 0 0 1 2 2 1 0
0 0 0 0 0 0 0 0 0 0 0 0 0 0 0 0 0 0 0 0 0 0 0 0 0 0 0 0 0 0 0 0 0 0 0 0 0 0 0 0 0 0 0 0 0 1 2 1 0
0 0 0 0 0 0 0 0 0 0 0 0 0 0 0 0 0 0 0 0 0 0 0 0 0 0 0 0 0 0 0 0 0 0 0 0 0 0 0 0 0 0 0 0 0 1 2 1 0
Wind_Speed
7 5 3 3 5 3 8 6 5 5 5 7 7 5 6 8 7 6 5 5 3 3 3 4 2 1 2 2 3 4 4 5 5 5 5 5 5 4 4 4 3 3 2 2 1 0 1 2 2
5 4 4 4 1 5 7 6 8 7 5 3 5 5 6 8 8 6 5 5 3 3 3 3 3 1 1 2 3 3 4 5 5 5 6 5 5 5 5 5 4 3 3 2 1 1 0 1 1
5 4 3 1 4 6 6 6 6 5 6 3 4 6 6 7 7 6 6 4 3 4 3 5 4 3 3 3 3 4 5 5 6 6 7 7 6 6 6 5 5 4 3 3 2 1 1 0 1
3 4 3 2 8 7 5 5 3 2 5 6 4 6 7 7 6 6 5 4 4 4 4 6 6 6 5 5 5 5 5 6 6 7 7 7 7 7 6 6 6 5 5 4 3 2 2 2 1
3 3 2 5 6 6 5 6 5 4 4 6 4 6 7 7 7 6 6 6 5 5 5 6 8 7 7 7 6 6 6 6 7 7 8 8 8 8 8 8 7 7 6 6 5 4 3 3 2
3 3 1 4 6 5 5 4 4 6 6 5 4 5 6 6 7 7 7 7 7 6 5 6 7 7 8 8 8 8 7 7 7 8 8 8 8 9 9 9 9 8 8 7 6 5 4 4 3
3 1 2 4 4 4 4 3 5 4 6 6 4 4 6 7 7 6 7 7 7 7 7 6 6 6 7 8 8 8 8 7 7 7 8 9 9 10 10 10 10 10 10 9 8 7 6 5 4
3 1 2 2 2 3 3 3 4 5 6 5 4 4 5 6 5 5 7 7 7 7 7 6 6 6 6 5 6 8 8 7 7 7 7 8 9 11 11 12 11 11 11 10 9 8 7 6 5
4 2 1 1 1 4 4 3 4 3 6 6 6 7 7 5 4 5 6 7 7 7 7 6 6 6 6 6 5 6 6 5 7 6 6 7 7 8 8 11 9 11 12 11 10 10 9 8 8
2 1 4 3 2 3 4 3 4 4 5 6 7 7 6 4 4 5 6 7 8 8 8 7 7 8 8 6 5 4 5 5 5 5 6 5 5 6 7 6 9 11 12 12 11 10 10 10 8
1 3 4 3 3 3 4 4 2 2 3 4 5 6 5 4 4 5 6 7 7 7 8 8 8 8 7 6 5 4 4 4 5 6 6 5 5 5 6 4 6 8 10 9 9 10 9 8 6
3 4 3 4 4 3 4 4 3 1 4 5 5 5 3 2 3 4 5 6 6 7 8 8 8 8 8 7 6 5 5 5 5 6 7 5 4 5 5 5 5 5 5 6 6 6 8 8 9
3 5 4 4 4 4 4 4 3 4 5 5 5 4 3 2 2 3 4 5 6 8 8 8 9 9 9 7 6 6 6 6 7 5 6 6 5 5 5 5 5 6 5 6 6 7 8 9 9
5 6 6 5 4 4 4 4 4 5 6 6 5 4 2 1 2 3 5 6 8 8 9 9 10 9 9 8 8 7 7 6 7 6 7 8 6 6 5 6 5 5 5 6 6 8 7 7 7
6 6 5 5 4 3 4 5 5 6 8 7 6 4 2 1 1 3 5 6 8 9 9 9 10 10 10 10 9 7 7 7 6 6 8 8 7 7 6 6 6 6 6 7 6 8 6 7 8
5 5 4 5 5 4 6 6 4 7 9 7 6 4 3 2 2 3 4 6 7 8 9 9 8 10 10 10 9 7 7 7 6 6 7 8 8 8 6 6 6 6 5 5 6 6 6 7 7
6 5 4 3 7 5 7 7 3 7 9 8 7 6 5 3 3 3 4 6 7 8 9 9 10 10 10 10 8 8 7 7 6 6 6 7 8 8 7 6 6 7 5 5 6 6 6 7 7
4 6 6 4 4 7 9 9 4 7 9 9 7 7 5 4 3 3 4 6 7 8 9 9 10 10 10 8 7 7 7 7 6 6 6 8 7 8 8 7 8 7 6 6 6 7 7 6 6
5 7 7 3 1 6 10 10 7 6 9 10 9 7 6 4 3 3 4 6 7 8 9 9 10 10 8 7 8 8 8 7 7 6 8 8 8 8 7 7 7 6 6 7 8 7 8 6 5
6 7 6 1 1 6 8 11 8 6 9 8 8 7 6 4 4 3 4 6 7 8 9 9 9 9 9 7 8 7 8 7 7 6 7 8 7 7 6 7 6 6 6 7 7 7 6 6 6
6 7 6 5 2 5 8 8 5 4 6 7 8 7 6 5 5 4 5 6 7 8 8 8 9 9 9 9 7 7 6 6 6 7 6 7 7 7 6 7 7 6 7 6 7 8 8 6 6
5 1 3 4 7 4 3 7 1 2 5 7 7 7 6 4 4 4 5 6 7 7 7 8 9 9 9 8 8 9 8 7 8 7 7 8 7 7 6 6 6 7 6 7 7 8 7 8 6
1 2 2 5 7 8 5 7 1 2 3 3 4 5 4 4 4 4 4 5 6 7 7 8 9 9 9 9 8 8 8 7 7 7 8 8 7 6 6 5 5 6 5 7 7 7 8 7 7
5 5 4 5 6 7 1 5 3 1 2 1 1 2 3 3 3 3 3 4 5 6 6 7 8 9 9 9 9 8 9 9 9 9 8 7 6 5 6 5 5 5 5 6 6 7 9 8 8
6 6 5 5 4 1 2 6 4 3 2 2 2 1 1 2 3 3 4 4 5 6 7 7 8 9 9 9 9 9 9 9 9 8 8 8 6 6 6 5 5 4 5 5 6 6 7 9 9
3 6 6 6 5 3 3 5 1 2 1 3 3 3 3 3 3 3 4 4 5 5 6 7 8 9 9 9 9 9 9 6 6 8 8 7 6 6 7 6 5 5 4 5 5 5 6 7 8
3 2 4 6 5 6 3 3 2 2 4 5 5 4 5 4 3 4 3 3 4 5 6 7 8 8 9 9 9 9 9 8 8 8 8 6 6 6 7 6 5 5 4 4 5 5 6 6 7
4 2 4 5 5 5 3 3 1 1 1 3 5 5 4 4 4 4 3 3 4 4 5 6 6 7 8 8 8 7 8 8 8 8 8 8 8 7 7 6 5 5 4 4 4 4 5 6 6
6 5 4 3 4 6 4 2 3 2 2 3 4 3 4 4 4 4 3 3 3 4 4 5 5 7 7 8 8 8 8 8 8 7 8 8 8 7 7 6 6 5 5 4 3 4 4 6 6
5 4 6 5 3 4 5 2 4 2 3 5 6 4 4 4 4 4 4 3 3 4 4 5 5 6 6 7 7 8 8 8 8 8 8 8 8 7 7 7 6 5 4 4 4 4 4 5 5
Wind_Direction
176 183 209 237 230 105 69 55 43 46 54 51 44 45 55 41 18 45 42 26 29 93 110 132 134 165 191 203 207 211 215 220 227 229 224 219 213 210 213 219 227 227 232 226 209 69 68 63 54
166 185 225 245 255 93 75 51 52 45 49 56 59 51 61 59 38 47 34 23 33 82 84 74 73 37 281 258 254 242 237 236 237 239 237 232 227 226 226 227 235 233 232 224 215 243 358 44 32
175 234 263 266 54 56 68 50 51 60 45 29 65 51 45 35 23 31 24 22 53 69 61 64 35 11 350 329 299 278 267 262 258 255 251 245 239 237 237 237 238 238 237 232 229 238 248 286 343
212 227 231 94 82 61 46 36 14 71 68 42 64 78 75 39 12 24 33 40 56 60 51 54 30 15 3 352 330 308 289 278 271 266 261 257 252 245 241 242 243 244 243 241 236 239 248 254 273
240 252 168 101 87 83 60 34 30 53 66 53 59 86 78 44 34 43 44 44 46 46 39 38 31 17 9 1 346 330 308 289 281 276 269 263 259 253 248 247 247 246 244 244 239 238 247 251 253
245 249 153 98 100 102 81 48 51 62 76 66 62 89 77 53 43 45 49 49 48 45 38 35 37 21 12 3 351 340 331 315 299 287 279 273 268 260 254 250 249 248 247 245 241 238 241 250 250
289 316 59 93 114 113 86 61 45 52 65 47 22 86 98 63 51 56 60 57 53 43 36 26 20 15 14 10 2 354 348 338 322 306 289 276 266 261 257 253 250 246 244 243 241 235 233 240 244
301 256 125 118 123 101 97 91 61 34 63 51 17 60 80 69 71 72 63 53 46 39 28 17 10 2 352 347 3 352 344 336 322 307 299 284 266 256 252 250 242 244 245 240 238 234 230 232 237
266 258 79 82 81 105 129 126 92 72 86 79 64 61 74 91 92 74 62 50 41 29 19 11 359 353 343 335 353 334 329 333 311 293 294 284 268 261 248 246 244 244 247 243 236 231 229 229 220
273 357 55 42 40 107 129 113 117 135 109 102 98 95 103 107 82 54 42 34 27 19 14 9 1 356 349 344 339 330 325 323 309 308 302 291 278 267 264 253 248 249 247 244 235 230 227 232 223
27 56 95 102 92 119 133 126 138 168 104 93 113 117 115 102 67 44 38 30 20 12 10 2 355 352 344 338 333 326 318 313 301 304 301 292 282 267 258 254 241 239 239 238 223 220 222 223 230
109 86 103 123 126 146 140 141 141 142 79 103 116 124 125 94 55 37 29 18 10 7 1 354 348 342 340 339 333 319 320 317 309 305 305 299 286 272 266 258 257 252 240 236 232 227 221 225 227
133 124 117 123 137 139 142 147 141 138 129 137 140 151 138 82 44 35 18 6 358 357 354 351 340 342 340 338 326 322 322 317 311 307 299 298 288 276 264 260 252 253 248 237 236 231 227 225 230
113 127 134 144 151 162 169 161 181 163 165 167 174 176 162 103 11 0 2 356 353 351 348 348 342 340 337 333 331 326 321 313 307 306 301 299 290 281 273 266 261 255 248 247 239 236 229 223 224
141 146 158 175 180 169 205 207 204 169 181 189 194 184 185 212 322 342 357 344 349 346 343 349 340 337 335 333 333 323 315 314 311 307 303 300 293 285 277 269 262 257 250 245 240 238 234 227 219
177 203 215 177 194 182 237 266 160 174 195 205 209 200 213 238 294 337 343 338 342 339 338 342 335 335 335 333 327 320 317 316 309 307 303 300 295 287 279 271 264 258 256 248 240 234 228 227 223
207 251 274 187 196 203 236 275 156 189 208 217 219 221 229 244 280 320 332 336 338 333 331 333 336 334 335 330 318 318 316 313 310 310 308 306 300 291 278 271 267 261 252 245 242 232 228 225 222
264 276 286 283 180 223 244 263 226 204 223 234 231 232 238 257 291 322 326 330 328 329 330 333 334 335 334 326 325 324 318 318 317 315 312 311 300 294 285 272 264 259 251 245 241 237 231 229 222
293 284 289 319 121 244 259 270 264 225 226 236 236 240 250 268 288 312 319 322 326 334 335 337 334 338 335 333 329 329 326 323 320 320 320 313 302 295 284 278 273 261 253 250 246 239 234 228 212
256 274 287 257 187 263 284 280 271 243 236 243 250 249 255 273 286 308 318 326 336 338 338 337 339 340 338 336 324 318 316 313 316 316 317 316 309 300 288 278 271 259 253 249 247 238 235 228 206
247 278 299 298 233 232 286 272 224 202 229 235 243 252 263 267 287 312 323 330 333 338 343 338 338 337 341 335 327 323 321 313 322 328 326 322 314 301 289 283 274 264 251 244 241 236 231 227 213
257 299 272 262 269 286 294 301 221 188 228 231 236 238 248 253 271 299 316 327 333 340 340 334 338 338 340 336 336 331 328 326 324 321 319 319 316 311 301 288 275 266 256 246 241 234 232 227 218
55 97 229 260 274 279 241 274 277 164 247 232 230 234 243 244 268 297 314 324 329 339 340 336 337 338 341 339 338 326 328 325 321 322 321 321 322 317 311 299 280 270 262 252 245 241 232 226 222
146 178 187 224 254 261 273 274 293 128 354 20 180 210 226 237 261 293 312 319 326 333 336 336 336 341 341 338 337 339 333 327 327 329 327 324 320 316 318 309 291 277 268 258 247 241 234 232 227
215 260 261 235 228 269 98 266 284 36 330 292 289 246 229 236 263 289 306 318 325 330 334 334 336 337 342 340 342 342 338 329 328 330 329 328 325 325 325 317 301 287 274 265 252 243 238 233 228
218 274 298 308 314 322 203 256 349 66 279 257 250 251 245 242 255 275 297 312 320 326 330 333 335 336 340 339 341 341 340 333 333 332 330 327 325 327 325 318 307 298 281 266 253 245 237 235 232
191 225 333 290 286 279 251 258 263 174 223 226 232 236 240 246 248 266 283 300 313 321 328 332 332 334 339 341 340 342 342 339 335 333 334 332 333 329 327 321 314 307 291 272 258 245 239 234 233
333 146 209 260 294 291 286 261 315 153 243 231 241 246 245 244 250 258 272 290 307 319 322 328 330 333 339 341 343 343 340 342 339 336 339 339 335 332 325 324 324 316 305 280 262 252 241 234 231
170 194 227 254 286 294 312 52 73 322 316 291 279 265 252 245 249 256 265 283 296 306 317 326 333 338 344 344 344 343 346 346 343 343 343 341 338 337 335 335 329 326 319 306 280 260 246 238 232
249 235 223 259 243 258 286 310 115 257 283 281 280 269 249 243 243 249 259 268 280 302 318 327 334 340 345 342 341 346 346 349 348 349 349 346 345 343 343 341 338 335 326 315 301 282 261 247 242